Retour au catalogue

SL-16 DEB

ActifLEO
NORAD 22422·DEBRIS·🇷🇺 Russia

Lancé Dec 25, 1992 depuis Baikonur Cosmodrome

Loading…

Prochains Passages (prochaines 24 heures)

TLE

FraisSource: Space-Track

Époque: Sep 14, 2026, 07:51 UTC

1 22422U 92093DP  26257.32729566  .00000186  00000-0  14935-3 0  9997
2 22422  71.1829 209.3120 0094209 296.8715 215.6443 14.00688541716872

Suivez SL-16 DEB en temps réel avec AllMySat

Download on the App Store